This demonstration page uses our WeatherBlox Daily Observations layout. Learn more.

Left ArrowRight Arrow

39.29038, -76.61219

Hourly Observations for January 28, 2020

Temp ( °F °C ) Dew Point ( °F °C ) Humidity (%) Winds ( mph kmh ) Pressure ( in mb ) Visibility ( mi km ) Precip ( " mm )
12:54 am 00:54 undefined 42 5.6 27 -2.8 55 55 undefined N/A 29.84 1011 N/A 0.00 0.00
1:54 am 01:54 undefined 41 5 27 -2.8 57 57 undefined N/A 29.85 1011 N/A 0.00 0.00
2:54 am 02:54 undefined 41 5 27 -2.8 57 57 undefined N/A 29.85 1011 N/A 0.00 0.00
3:54 am 03:54 undefined 41 5 27 -2.8 57 57 undefined N/A 29.85 1011 N/A 0.00 0.00
4:54 am 04:54 undefined 41 5 27 -2.8 57 57 undefined N/A 29.86 1011 N/A 0.00 0.00
5:54 am 05:54 undefined 41 5 27 -2.8 57 57 undefined N/A 29.87 1012 N/A 0.00 0.00
6:54 am 06:54 undefined 40 4.4 28 -2.2 63 63 undefined N/A 29.88 1012 N/A 0.00 0.00
7:54 am 07:54 undefined 40 4.4 28 -2.2 63 63 undefined N/A 29.91 1013 N/A 0.00 0.00
8:54 am 08:54 undefined 41 5 28 -2.2 60 60 undefined N/A 29.93 1014 N/A 0.00 0.00
9:54 am 09:54 undefined 42 5.6 28 -2.2 58 58 undefined N/A 29.94 1014 N/A 0.00 0.00
10:54 am 10:54 undefined 43 6.1 27 -2.8 53 53 undefined N/A 29.94 1014 N/A 0.00 0.00
11:54 am 11:54 undefined 44 6.7 27 -2.8 51 51 undefined N/A 29.93 1014 N/A 0.00 0.00
12:54 pm 12:54 undefined 45 7.2 26 -3.3 48 48 undefined N/A 29.90 1013 N/A 0.00 0.00
1:54 pm 13:54 undefined 45 7.2 26 -3.3 48 48 undefined N/A 29.90 1012 N/A 0.00 0.00
2:54 pm 14:54 undefined 45 7.2 25 -3.9 46 46 undefined N/A 29.90 1013 N/A 0.00 0.00
3:54 pm 15:54 undefined 45 7.2 25 -3.9 46 46 undefined N/A 29.90 1013 N/A 0.00 0.00
4:54 pm 16:54 undefined 45 7.2 25 -3.9 46 46 undefined N/A 29.91 1013 N/A 0.00 0.00
5:54 pm 17:54 undefined 45 7.2 26 -3.3 48 48 undefined N/A 29.94 1014 N/A 0.00 0.00
6:54 pm 18:54 undefined 44 6.7 26 -3.3 49 49 undefined N/A 29.96 1015 N/A 0.00 0.00
7:54 pm 19:54 undefined 44 6.7 26 -3.3 49 49 undefined N/A 29.98 1015 N/A 0.00 0.00
8:54 pm 20:54 undefined 44 6.7 25 -3.9 47 47 undefined N/A 29.99 1016 N/A 0.00 0.00
9:54 pm 21:54 undefined 43 6.1 24 -4.4 47 47 undefined N/A 29.99 1016 N/A 0.00 0.00
10:54 pm 22:54 undefined 43 6.1 25 -3.9 49 49 undefined N/A 30.01 1016 N/A 0.00 0.00
11:54 pm 23:54 undefined 42 5.6 26 -3.3 53 53 undefined N/A 30.02 1017 N/A 0.00 0.00

Powered by AerisWeather